When you browse on this site, cookies collect data to enhance your experience and personalize the content and advertising you see.
Visit our Privacy Policy to learn more. By continuing to use the site, you agree to this use of cookies and data.
  • In Schweiz
  • Länderverzeichnis
  • Für 7 Tage
  • Wassertemperatur
  • Wetterkarte
  • Widgets
  • user-avatar
    Anmelden

    Stündliche Wetter York

    Heute, 29 Mai, Freitag

    Zeit Temperatur Niederschläge Wind Luftdruck Luftfeuchtigkeit
    00:00 +12°C° 0 mm 2 m/S 771 mmHg 88%
    01:00 +12°C° 0 mm 2 m/S 771 mmHg 89%
    02:00 +10°C° 0 mm 2 m/S 771 mmHg 90%
    03:00 +10°C° 0 mm 2 m/S 771 mmHg 91%
    04:00 +12°C° 0 mm 2 m/S 771 mmHg 88%
    05:00 +13°C° 0 mm 2 m/S 771 mmHg 85%
    06:00 +13°C° 0 mm 2 m/S 771 mmHg 82%
    07:00 +15°C° 0 mm 2 m/S 771 mmHg 74%
    08:00 +16°C° 0 mm 3 m/S 771 mmHg 67%
    09:00 +18°C° 0 mm 3 m/S 771 mmHg 60%
    10:00 +19°C° 0 mm 3 m/S 771 mmHg 58%
    11:00 +20°C° 0 mm 3 m/S 770 mmHg 55%
    12:00 +21°C° 0 mm 3 m/S 770 mmHg 53%
    13:00 +21°C° 0 mm 3 m/S 770 mmHg 54%
    14:00 +21°C° 0 mm 3 m/S 770 mmHg 55%
    15:00 +21°C° 0 mm 3 m/S 769 mmHg 56%
    16:00 +20°C° 0 mm 4 m/S 769 mmHg 60%
    17:00 +19°C° 0 mm 4 m/S 769 mmHg 64%
    18:00 +18°C° 0 mm 4 m/S 768 mmHg 68%
    19:00 +16°C° 0 mm 3 m/S 768 mmHg 72%
    20:00 +13°C° 0 mm 3 m/S 769 mmHg 77%
    21:00 +11°C° 0 mm 3 m/S 769 mmHg 81%
    22:00 +10°C° 0 mm 2 m/S 769 mmHg 82%
    23:00 +9°C° 0 mm 2 m/S 769 mmHg 84%

    Morgen, 30 Mai, Samstag

    Zeit Temperatur Niederschläge Wind Luftdruck Luftfeuchtigkeit
    00:00 +8°C° 0 mm 2 m/S 769 mmHg 85%
    01:00 +9°C° 0 mm 1 m/S 769 mmHg 86%
    02:00 +8°C° 0 mm 1 m/S 769 mmHg 87%
    03:00 +8°C° 0 mm 1 m/S 769 mmHg 87%
    04:00 +9°C° 0 mm 1 m/S 769 mmHg 84%
    05:00 +10°C° 0 mm 1 m/S 769 mmHg 81%
    06:00 +11°C° 0 mm 1 m/S 769 mmHg 78%
    07:00 +13°C° 0 mm 2 m/S 769 mmHg 71%
    08:00 +15°C° 0 mm 2 m/S 769 mmHg 65%
    09:00 +16°C° 0 mm 3 m/S 769 mmHg 58%
    10:00 +17°C° 0 mm 3 m/S 769 mmHg 57%
    11:00 +18°C° 0 mm 4 m/S 768 mmHg 57%
    12:00 +19°C° 0 mm 4 m/S 768 mmHg 56%
    13:00 +19°C° 0 mm 4 m/S 768 mmHg 59%
    14:00 +19°C° 0 mm 5 m/S 768 mmHg 61%
    15:00 +19°C° 0 mm 5 m/S 768 mmHg 63%
    16:00 +17°C° 0 mm 5 m/S 768 mmHg 66%
    17:00 +17°C° 0 mm 4 m/S 768 mmHg 69%
    18:00 +15°C° 0 mm 4 m/S 768 mmHg 72%
    19:00 +13°C° 0 mm 4 m/S 768 mmHg 79%
    20:00 +11°C° 0 mm 3 m/S 768 mmHg 86%
    21:00 +10°C° 0 mm 2 m/S 768 mmHg 92%
    22:00 +9°C° 0 mm 2 m/S 769 mmHg 93%
    23:00 +9°C° 0 mm 2 m/S 769 mmHg 94%

    übermorgen, 31 Mai, Sonntag

    Zeit Temperatur Niederschläge Wind Luftdruck Luftfeuchtigkeit
    00:00 +9°C° 0 mm 1 m/S 769 mmHg 94%
    01:00 +9°C° 0 mm 1 m/S 769 mmHg 94%
    02:00 +9°C° 0 mm 1 m/S 769 mmHg 94%
    03:00 +8°C° 0 mm 1 m/S 769 mmHg 94%
    04:00 +9°C° 0 mm 1 m/S 769 mmHg 92%
    05:00 +9°C° 0 mm 2 m/S 769 mmHg 90%
    06:00 +10°C° 0 mm 2 m/S 769 mmHg 88%
    07:00 +13°C° 0 mm 2 m/S 769 mmHg 78%
    08:00 +15°C° 0 mm 2 m/S 769 mmHg 69%
    09:00 +17°C° 0 mm 2 m/S 769 mmHg 60%
    10:00 +18°C° 0 mm 3 m/S 769 mmHg 57%
    11:00 +18°C° 0 mm 3 m/S 769 mmHg 53%
    12:00 +19°C° 0 mm 3 m/S 769 mmHg 50%
    13:00 +20°C° 0 mm 3 m/S 769 mmHg 52%
    14:00 +20°C° 0 mm 3 m/S 769 mmHg 55%
    15:00 +20°C° 0 mm 3 m/S 769 mmHg 57%
    16:00 +19°C° 0 mm 3 m/S 769 mmHg 61%
    17:00 +18°C° 0 mm 4 m/S 769 mmHg 65%
    18:00 +17°C° 0 mm 4 m/S 769 mmHg 70%
    19:00 +14°C° 0 mm 3 m/S 769 mmHg 76%
    20:00 +12°C° 0 mm 3 m/S 769 mmHg 82%
    21:00 +10°C° 0 mm 2 m/S 769 mmHg 87%
    22:00 +10°C° 0 mm 2 m/S 769 mmHg 88%
    23:00 +10°C° 0 mm 1 m/S 769 mmHg 89%

    1 Juni, Montag

    Zeit Temperatur Niederschläge Wind Luftdruck Luftfeuchtigkeit
    00:00 +10°C° 0 mm 1 m/S 769 mmHg 90%
    01:00 +9°C° 0 mm 1 m/S 769 mmHg 90%
    02:00 +9°C° 0 mm 1 m/S 769 mmHg 90%
    03:00 +9°C° 0 mm 1 m/S 769 mmHg 90%
    04:00 +10°C° 0 mm 1 m/S 769 mmHg 87%
    05:00 +11°C° 0 mm 1 m/S 768 mmHg 84%
    06:00 +12°C° 0 mm 1 m/S 768 mmHg 82%
    07:00 +14°C° 0 mm 1 m/S 768 mmHg 76%
    08:00 +16°C° 0 mm 2 m/S 768 mmHg 70%
    09:00 +18°C° 0 mm 2 m/S 768 mmHg 64%
    10:00 +18°C° 0 mm 3 m/S 768 mmHg 61%
    11:00 +19°C° 0 mm 4 m/S 768 mmHg 59%
    12:00 +20°C° 0 mm 4 m/S 768 mmHg 56%
    13:00 +20°C° 0 mm 4 m/S 767 mmHg 57%
    14:00 +20°C° 0 mm 4 m/S 767 mmHg 58%
    15:00 +20°C° 0 mm 4 m/S 767 mmHg 59%
    16:00 +19°C° 0 mm 4 m/S 767 mmHg 62%
    17:00 +18°C° 0 mm 3 m/S 766 mmHg 66%
    18:00 +18°C° 0 mm 3 m/S 766 mmHg 69%
    19:00 +16°C° 0 mm 3 m/S 766 mmHg 76%
    20:00 +14°C° 0 mm 2 m/S 766 mmHg 82%
    21:00 +12°C° 0 mm 2 m/S 766 mmHg 88%
    22:00 +11°C° 0 mm 1 m/S 766 mmHg 88%
    23:00 +11°C° 0 mm 1 m/S 766 mmHg 89%

    2 Juni, Dienstag

    Zeit Temperatur Niederschläge Wind Luftdruck Luftfeuchtigkeit
    00:00 +9°C° 0 mm 0 m/S 765 mmHg 89%
    01:00 +9°C° 0 mm 0 m/S 765 mmHg 89%
    02:00 +10°C° 0 mm 1 m/S 765 mmHg 89%
    03:00 +10°C° 0 mm 1 m/S 765 mmHg 89%
    04:00 +11°C° 0 mm 1 m/S 764 mmHg 87%
    05:00 +12°C° 0 mm 1 m/S 764 mmHg 85%
    06:00 +13°C° 0 mm 1 m/S 764 mmHg 82%
    07:00 +15°C° 0 mm 1 m/S 764 mmHg 76%
    08:00 +16°C° 0 mm 2 m/S 764 mmHg 70%
    09:00 +18°C° 0 mm 2 m/S 763 mmHg 64%
    10:00 +19°C° 0 mm 2 m/S 763 mmHg 61%
    11:00 +19°C° 0 mm 3 m/S 763 mmHg 58%
    12:00 +20°C° 0 mm 3 m/S 763 mmHg 55%
    13:00 +20°C° 0 mm 3 m/S 762 mmHg 56%
    14:00 +19°C° 0 mm 3 m/S 762 mmHg 57%
    15:00 +19°C° 0 mm 3 m/S 761 mmHg 58%
    16:00 +18°C° 0 mm 3 m/S 761 mmHg 62%
    17:00 +17°C° 0 mm 4 m/S 761 mmHg 66%
    18:00 +17°C° 0 mm 4 m/S 761 mmHg 70%
    19:00 +14°C° 0 mm 4 m/S 761 mmHg 75%
    20:00 +13°C° 0 mm 4 m/S 761 mmHg 80%
    21:00 +12°C° 0 mm 4 m/S 761 mmHg 85%
    22:00 +12°C° 0 mm 4 m/S 761 mmHg 85%
    23:00 +10°C° 0 mm 5 m/S 761 mmHg 85%

    3 Juni, Mittwoch

    Zeit Temperatur Niederschläge Wind Luftdruck Luftfeuchtigkeit
    00:00 +10°C° 0 mm 5 m/S 761 mmHg 85%
    01:00 +10°C° 0.3 mm 6 m/S 761 mmHg 86%
    02:00 +10°C° 0.3 mm 6 m/S 761 mmHg 87%
    03:00 +10°C° 0.3 mm 6 m/S 760 mmHg 88%
    04:00 +10°C° 0.2 mm 6 m/S 760 mmHg 88%
    05:00 +10°C° 0.2 mm 7 m/S 760 mmHg 89%
    06:00 +10°C° 0.2 mm 7 m/S 760 mmHg 90%
    07:00 +10°C° 0.1 mm 7 m/S 760 mmHg 88%
    08:00 +11°C° 0.1 mm 7 m/S 760 mmHg 87%
    09:00 +11°C° 0.1 mm 8 m/S 760 mmHg 85%
    10:00 +12°C° 0 mm 8 m/S 760 mmHg 81%
    11:00 +13°C° 0 mm 8 m/S 760 mmHg 77%
    12:00 +13°C° 0 mm 8 m/S 760 mmHg 73%
    13:00 +13°C° 0 mm 8 m/S 760 mmHg 73%
    14:00 +13°C° 0 mm 8 m/S 760 mmHg 74%
    15:00 +13°C° 0 mm 8 m/S 760 mmHg 74%
    16:00 +12°C° 0 mm 8 m/S 760 mmHg 75%
    17:00 +12°C° 0 mm 7 m/S 760 mmHg 77%
    18:00 +11°C° 0 mm 7 m/S 760 mmHg 79%
    19:00 +10°C° 0 mm 7 m/S 760 mmHg 81%
    20:00 +10°C° 0 mm 6 m/S 760 mmHg 84%
    21:00 +9°C° 0 mm 5 m/S 760 mmHg 87%
    22:00 +9°C° 0 mm 5 m/S 760 mmHg 88%
    23:00 +8°C° 0 mm 5 m/S 760 mmHg 89%
    Mehr zeigen